Weather History for Du Bois, PA

Change the Weather History Date:

Tuesday, October 30, 2012

  Actual Average Record
Temperature  
Mean Temperature 41 °F 45 °F  
Max Temperature 48 °F 54 °F 73 °F (1971)
Min Temperature 34 °F 36 °F 23 °F (1975)
Degree Days  
Heating Degree Days 24 20  
Month to date heating degree days 399 475  
Since 1 July heating degree days 622 721  
Cooling Degree Days 0 0  
Month to date cooling degree days 3 0  
Year to date cooling degree days 548 360  
Moisture  
Dew Point 37 °F    
Average Humidity 89    
Maximum Humidity 96    
Minimum Humidity 82    
Precipitation  
Precipitation 0.24 in 0.11 in 0.52 in (1970)
Month to date precipitation 4.40 3.04  
Sea Level Pressure  
Sea Level Pressure 29.13 in    
Wind  
Wind Speed 9 mph (ENE)    
Max Wind Speed 31 mph    
Max Gust Speed 44 mph    
Visibility 9 miles    
Events Rain    
T = Trace of Precipitation, MM = Missing Value Source: NWS Daily Summary

Daily Weather History Graph

Daily Weather History Graph

Search for Another Location

Airport:

Trip Planner

Search our weather history database for the weather conditions in past years. The results will help you decide how hot, cold, wet, or windy it might be!

Date:

Astronomy

Oct. 30, 2012 Rise Set
Actual Time 7:44 AM EDT 6:12 PM EDT
Civil Twilight 7:16 AM EDT 6:41 PM EDT
Nautical Twilight 6:43 AM EDT 7:13 PM EDT
Astronomical Twilight 6:11 AM EDT 7:45 PM EDT
Moon 6:40 PM EDT (10/30) 8:30 AM EDT (10/30)
Length of Visible Light 11h 25m
Length of Day
10h 28m
Full, 99% of the Moon is Illuminated
Oct 30
Full
Nov 6
Last Quarter
Nov 13
New
Nov 20
First Quarter
Nov 28
Full

Hourly Weather History & Observations

Time (EDT) Temp. Windchill Dew Point Humidity Pressure Visibility Wind Dir Wind Speed Gust Speed Precip Events Conditions
12:27 AM 42.8 °F 32.3 °F 37.4 °F 81% 28.91 in 7.0 mi NNW 29.9 mph 46.0 mph 0.01 in Rain Light Rain
12:56 AM 42.1 °F 31.9 °F 37.9 °F 85% 28.90 in 7.0 mi North 26.5 mph 43.7 mph 0.02 in Rain Light Rain
1:44 AM 42.8 °F 32.3 °F 39.2 °F 87% 28.87 in 8.0 mi North 29.9 mph 41.4 mph 0.00 in Rain Light Rain
2:56 AM 44.1 °F 35.2 °F 39.9 °F 85% 28.88 in 10.0 mi North 23.0 mph 32.2 mph N/A   Overcast
3:24 AM 44.6 °F 37.2 °F 41.0 °F 87% 28.87 in 10.0 mi North 17.3 mph 25.3 mph 0.01 in   Overcast
3:56 AM 45.0 °F 38.9 °F 42.1 °F 90% 28.88 in 10.0 mi North 12.7 mph 21.9 mph 0.01 in   Overcast
4:13 AM 46.4 °F 40.7 °F 42.8 °F 87% 28.87 in 10.0 mi North 12.7 mph - 0.00 in   Overcast
4:36 AM 46.4 °F 41.1 °F 42.8 °F 87% 28.88 in 8.0 mi North 11.5 mph - 0.00 in   Overcast
4:56 AM 46.9 °F - 43.0 °F 86% 28.90 in 10.0 mi NNE 13.8 mph - 0.01 in   Overcast
6:03 AM 46.4 °F 41.1 °F 42.8 °F 87% 28.92 in 10.0 mi ENE 11.5 mph - 0.01 in Rain Light Rain
6:56 AM 45.0 °F 38.5 °F 41.0 °F 86% 28.97 in 7.0 mi ENE 13.8 mph - 0.04 in Rain Light Rain
7:23 AM 44.6 °F 38.8 °F 39.2 °F 81% 28.97 in 10.0 mi ENE 11.5 mph 21.9 mph 0.00 in   Overcast
7:56 AM 44.1 °F 37.1 °F 39.0 °F 82% 29.01 in 10.0 mi ENE 15.0 mph 24.2 mph 0.00 in Rain Light Rain
8:09 AM 42.8 °F 36.6 °F 39.2 °F 87% 29.00 in 10.0 mi NE 11.5 mph 19.6 mph 0.01 in   Overcast
8:56 AM 42.1 °F 36.1 °F 37.9 °F 85% 29.05 in 10.0 mi ENE 10.4 mph - 0.01 in   Overcast
9:56 AM 42.1 °F 34.9 °F 37.9 °F 85% 29.08 in 10.0 mi ENE 13.8 mph 20.7 mph 0.01 in   Overcast
10:56 AM 42.1 °F 35.7 °F 37.9 °F 85% 29.11 in 10.0 mi East 11.5 mph - 0.00 in Rain Light Rain
11:56 AM 41.0 °F 35.2 °F 37.0 °F 86% 29.13 in 10.0 mi East 9.2 mph - 0.02 in Rain Light Rain
12:56 PM 39.9 °F 33.9 °F 37.0 °F 89% 29.16 in 10.0 mi East 9.2 mph - 0.02 in Rain Light Rain
1:56 PM 39.9 °F 35.1 °F 37.0 °F 89% 29.18 in 10.0 mi ENE 6.9 mph - 0.02 in Rain Light Rain
2:10 PM 39.2 °F 32.5 °F 35.6 °F 87% 29.17 in 9.0 mi East 10.4 mph - 0.01 in Rain Light Rain
2:56 PM 39.0 °F 31.8 °F 36.0 °F 89% 29.20 in 10.0 mi East 11.5 mph - 0.03 in Rain Light Rain
3:05 PM 39.2 °F 33.0 °F 35.6 °F 87% 29.18 in 10.0 mi East 9.2 mph - 0.00 in Rain Light Rain
3:21 PM 39.2 °F 33.0 °F 35.6 °F 87% 29.19 in 10.0 mi East 9.2 mph - 0.01 in   Overcast
3:33 PM 39.2 °F 34.2 °F 35.6 °F 87% 29.20 in 9.0 mi ESE 6.9 mph - 0.01 in   Overcast
3:40 PM 39.2 °F 34.2 °F 35.6 °F 87% 29.20 in 10.0 mi ESE 6.9 mph - 0.01 in Rain Light Rain
3:56 PM 37.9 °F 30.9 °F 35.1 °F 89% 29.23 in 9.0 mi SE 10.4 mph - 0.02 in Rain Light Rain
4:27 PM 37.4 °F 32.8 °F 35.6 °F 93% 29.22 in 10.0 mi SE 5.8 mph - 0.00 in   Overcast
4:56 PM 37.0 °F 31.0 °F 35.1 °F 93% 29.25 in 10.0 mi ESE 8.1 mph - 0.01 in   Overcast
5:56 PM 37.0 °F 31.6 °F 34.0 °F 89% 29.28 in 10.0 mi ESE 6.9 mph - N/A   Overcast
6:19 PM 37.4 °F 32.1 °F 33.8 °F 87% 29.27 in 10.0 mi ESE 6.9 mph - N/A   Overcast
6:56 PM 36.0 °F 30.3 °F 34.0 °F 93% 29.31 in 10.0 mi East 6.9 mph - N/A   Overcast
7:56 PM 36.0 °F 31.1 °F 33.1 °F 89% 29.33 in 10.0 mi ESE 5.8 mph - N/A   Overcast
8:41 PM 35.6 °F 30.7 °F 33.8 °F 93% 29.32 in 5.0 mi SE 5.8 mph - N/A   Overcast
8:56 PM 35.1 °F 32.2 °F 33.1 °F 92% 29.36 in 5.0 mi South 3.5 mph - N/A   Overcast
9:56 PM 35.1 °F - 33.1 °F 92% 29.37 in 8.0 mi Calm Calm - 0.01 in   Overcast
10:06 PM 35.6 °F - 33.8 °F 93% 29.35 in 9.0 mi Calm Calm - N/A   Overcast
10:16 PM 35.6 °F 32.8 °F 33.8 °F 93% 29.35 in 6.0 mi Variable 3.5 mph - N/A   Overcast
10:56 PM 34.0 °F 31.0 °F 32.0 °F 92% 29.38 in 8.0 mi South 3.5 mph - N/A   Overcast
11:07 PM 33.8 °F 29.6 °F 32.0 °F 93% 29.35 in 9.0 mi South 4.6 mph - N/A   Overcast
11:34 PM 33.8 °F - 32.0 °F 93% 29.34 in 8.0 mi Calm Calm - N/A   Overcast